Location: Gauravaram
(16.6995°N, 80.5417°E)
Time: 09:39:10
(UTC+00:00)

Resurs 1-3 - Pass Details

Date: 03 August 2024
Orbit: 619 x 622 km, 97.7° (Epoch: 15 September)

Event Time Altitude Azimuth Distance (km) Brightness Sun altitude
Exits shadow 14:16:30 - 175° (S) 2,365 6.3 -15.9°
Reaches altitude 10° 14:17:25 10° 177° (S) 1,986 5.9 -16.1°
Maximum altitude 14:21:42 65° 259° (WSW) 684 3.9 -17.0°
Drops below altitude 10° 14:26:01 10° 341° (NNW) 1,991 6.8 -18.0°
Sets 14:28:13 0° 344° (NNW) 2,898 7.6 -18.4°
